GFSFLT2_sfc_wetblb_066.txt.gz
Wetbulb
41.12 40.45 40.07 38.31 37.83 38.11 38.73 37.71 38.37 43.59 44.15 44.91 45.33 45.80 46.59 47.46 48.17 48.70 49.26 50.28 51.25 52.04 52.66 52.70 52.56 52.48 52.53
39.60 37.94 38.55 37.07 34.28 34.52 37.33 39.02 36.82 41.32 42.30 41.66 42.42 43.42 44.93 45.39 45.88 46.42 46.47 47.22 47.98 49.35 49.32 49.37 49.45 49.68 50.20
37.11 38.08 36.74 37.72 33.34 31.81 34.35 32.53 36.57 37.90 39.07 40.12 40.23 40.71 41.24 43.19 43.26 43.06 43.37 44.61 45.50 45.48 45.53 45.32 45.42 46.00 46.73
34.89 34.69 37.17 36.66 33.78 29.99 29.09 29.52 29.49 32.28 33.83 35.64 37.19 37.94 39.15 39.47 39.68 39.07 39.69 40.48 41.30 42.17 42.85 43.12 43.16 43.39 43.78
35.59 36.52 36.17 34.56 29.25 28.10 26.74 26.13 27.10 26.70 26.55 26.34 26.70 26.56 28.86 34.90 36.91 37.08 36.94 37.36 37.85 38.57 39.71 40.59 41.10 41.68 42.24
34.74 33.93 28.54 26.85 27.05 26.23 25.68 23.06 22.83 26.98 25.06 24.61 25.59 25.56 26.73 26.92 35.45 36.14 36.55 36.78 37.26 37.72 37.99 37.99 38.43 38.95 39.52
30.42 28.32 25.96 27.30 26.51 25.60 25.02 23.48 24.44 26.01 25.13 22.05 24.74 25.05 26.31 29.41 35.52 35.97 36.91 36.40 37.15 38.01 38.41 38.60 38.83 39.19 39.29
28.23 27.71 28.43 28.05 28.38 28.17 26.39 25.53 25.90 25.71 24.65 19.59 23.36 24.92 25.79 26.64 35.84 35.76 36.31 36.20 36.31 36.42 36.69 37.10 37.67 38.73 39.33
33.04 33.81 34.34 34.06 30.59 26.87 25.33 22.96 22.65 23.60 24.76 23.25 23.34 24.01 25.25 26.20 27.31 35.95 35.72 36.34 36.62 36.52 36.23 36.86 37.22 37.18 33.66
26.50 28.18 27.70 28.42 32.17 26.34 25.39 19.88 21.63 19.68 24.32 21.20 23.24 23.10 19.69 25.02 26.47 26.42 26.52 34.38 34.72 35.35 35.27 35.58 35.92 30.17 29.02
24.66 23.17 23.99 25.47 25.74 25.38 25.37 20.13 15.16 14.82 26.54 20.17 11.80 17.73 15.48 18.78 23.73 25.12 24.84 25.20 25.22 26.47 31.33 32.40 34.12 33.67 28.01
23.83 23.16 23.52 23.56 23.84 25.05 25.92 24.48 23.56 20.80 24.10 18.40 11.87 12.97 8.46 11.96 18.37 23.36 23.19 23.74 22.98 23.62 23.01 28.38 31.25 32.19 33.32
23.71 23.79 22.63 22.31 21.92 21.61 22.41 23.79 21.56 23.64 26.14 15.48 15.65 8.48 10.92 11.13 14.57 16.79 21.36 22.43 21.97 18.68 20.46 20.74 21.70 22.70 21.05
23.68 23.29 23.71 19.63 21.02 21.00 18.85 19.63 17.41 20.10 24.85 22.10 15.24 13.76 10.40 16.79 16.56 16.96 16.69 15.12 18.11 18.92 21.88 22.95 23.73 24.85 24.56
22.86 23.26 24.36 24.30 23.45 20.36 20.09 16.67 15.68 15.05 18.19 21.81 23.79 20.72 19.47 16.60 19.83 21.31 20.88 19.84 19.66 19.72 18.67 19.45 22.83 23.75 25.02
22.85 21.89 21.30 20.93 20.13 18.30 15.70 14.27 14.11 14.86 14.26 16.27 16.19 16.76 17.88 21.43 25.90 21.62 19.57 18.93 18.88 19.17 19.55 20.44 22.48 22.41 25.55
21.64 20.46 19.06 18.64 23.94 16.94 15.49 15.09 12.73 13.04 13.33 11.40 6.44 7.17 7.68 14.42 20.51 29.31 21.54 14.04 15.56 18.10 20.69 20.42 21.12 23.20 24.52

GFSFLT2_sfc_wetblb_072.txt.gz
Wetbulb
41.18 40.95 40.51 40.48 40.06 39.61 39.69 37.81 38.75 43.61 44.26 43.47 44.13 45.52 46.45 46.98 48.09 48.86 50.37 51.21 52.37 53.80 55.81 56.38 56.28 56.29 56.26
39.41 38.56 39.06 39.15 37.95 37.53 38.13 37.75 36.83 40.96 42.08 41.96 42.39 43.29 44.49 44.48 45.20 46.25 46.97 47.72 48.18 49.22 50.45 51.76 53.05 54.23 54.52
37.34 38.86 38.39 37.68 35.69 35.35 34.38 32.52 33.81 37.00 39.33 40.24 40.88 41.02 41.43 42.15 42.36 43.06 43.56 44.62 45.37 45.83 46.51 47.44 48.10 48.98 49.97
38.16 37.16 37.27 36.69 35.47 33.27 31.16 29.62 28.98 31.66 33.23 34.57 35.98 36.90 39.62 39.86 39.02 38.53 39.32 40.58 42.18 43.33 43.80 44.07 44.59 45.30 45.92
36.31 36.96 35.99 34.78 33.76 30.94 29.42 27.58 27.50 27.34 26.94 27.60 27.10 27.88 29.55 32.99 35.47 37.80 38.15 38.38 38.94 39.81 40.84 41.41 41.57 42.12 42.68
35.85 35.39 34.16 32.37 29.69 27.69 27.01 25.31 24.23 27.12 26.24 25.73 27.22 26.83 27.36 28.61 36.97 37.24 37.54 37.89 38.72 39.00 39.16 39.26 39.16 39.27 39.49
34.69 33.75 31.29 30.59 26.94 25.82 26.15 24.86 25.11 26.27 25.20 22.92 25.41 25.57 27.21 28.92 35.64 37.33 38.02 38.57 38.46 38.45 38.64 39.44 39.67 39.71 39.81
30.84 29.64 28.44 28.26 28.38 28.67 26.79 25.67 26.29 26.02 24.91 21.29 24.32 25.26 26.56 28.05 36.57 37.38 37.27 37.51 37.47 37.60 37.87 38.02 38.18 38.80 39.05
34.86 34.98 35.02 34.23 31.22 27.80 25.74 23.70 23.63 24.08 25.54 24.32 24.60 24.90 26.04 26.91 29.05 35.64 36.34 37.09 37.30 37.54 37.63 37.09 36.78 36.02 32.83
26.08 28.04 27.90 31.80 34.09 27.39 26.53 22.12 23.42 22.37 25.66 24.56 24.90 24.67 23.13 25.96 26.92 26.64 27.43 33.63 34.06 34.04 34.38 34.67 35.42 30.14 29.06
25.36 23.79 24.11 25.77 26.10 25.80 26.51 24.71 22.88 24.29 27.96 24.79 19.93 21.51 19.05 20.51 23.73 25.33 25.42 25.75 25.64 26.62 30.12 31.73 33.60 31.81 27.34
24.28 22.90 22.99 24.50 24.96 26.31 27.18 26.92 26.79 24.83 27.59 22.58 16.11 16.71 11.42 14.62 18.96 23.35 23.49 23.81 23.55 24.32 23.75 27.56 29.16 30.25 31.68
24.04 22.86 22.91 24.37 26.45 26.26 26.45 25.56 24.13 25.77 26.36 19.08 17.55 10.95 12.88 12.88 15.79 17.77 21.67 22.30 22.11 19.05 21.63 21.66 22.10 23.09 20.98
24.60 25.01 25.45 24.55 24.60 24.56 22.12 22.69 21.74 23.01 26.43 22.78 17.78 15.35 12.97 13.69 13.61 12.91 15.08 15.41 18.60 18.90 20.79 21.48 23.27 24.18 23.62
24.87 23.57 23.96 24.59 24.51 22.94 22.57 21.16 20.68 21.74 22.13 23.26 24.07 20.69 17.46 14.07 15.67 18.57 19.22 17.96 18.05 16.80 18.60 18.01 21.81 23.02 23.78
23.61 22.64 22.50 22.87 22.56 22.01 20.74 20.29 20.26 19.85 20.01 20.89 19.07 14.87 16.24 20.10 24.44 18.50 17.00 16.36 16.25 18.15 19.65 18.45 19.40 21.35 24.05
24.41 23.37 22.06 21.17 24.02 21.09 20.35 20.18 19.10 18.62 17.21 14.77 6.19 7.42 8.91 14.18 22.32 27.87 16.91 15.13 14.87 18.12 19.73 18.54 19.53 22.50 23.68

GFSFLT2_sfc_wetblb_075.txt.gz
Wetbulb
42.12 42.37 42.53 42.52 41.24 40.76 41.28 41.12 42.56 44.06 44.68 43.74 44.90 45.66 46.24 46.93 48.42 49.50 50.09 51.06 52.72 54.41 57.19 58.18 59.53 59.43 59.47
40.13 39.44 39.98 40.58 39.77 38.86 39.18 39.11 39.44 42.69 42.70 42.34 42.76 43.90 44.39 44.65 45.23 46.37 47.28 47.93 48.90 50.30 52.08 54.16 55.74 55.64 56.11
38.89 39.83 39.19 38.38 36.68 37.13 36.16 36.14 35.85 38.80 39.89 40.57 41.18 41.39 42.37 42.26 42.73 42.98 44.09 45.44 46.10 46.77 47.96 49.06 50.37 52.00 53.31
39.57 38.50 38.28 37.59 37.06 35.35 33.19 33.76 34.99 34.50 34.77 35.83 36.73 38.16 40.51 40.15 38.67 38.82 39.71 41.56 43.40 44.43 44.96 45.49 46.41 47.45 48.25
38.16 38.06 36.80 35.45 35.20 34.70 34.34 33.40 32.94 33.18 32.45 32.76 33.40 33.55 35.52 36.00 36.96 38.10 38.33 38.72 39.62 41.16 42.34 42.80 43.25 43.95 44.29
37.96 37.11 36.85 35.79 33.20 32.79 32.75 32.84 31.93 32.94 32.07 30.95 32.55 32.27 33.34 35.35 37.29 37.65 37.55 38.34 38.92 39.30 39.67 39.98 40.12 40.56 40.85
36.80 36.55 34.55 34.29 33.17 31.82 32.46 32.07 31.17 31.16 31.37 29.70 31.47 31.20 32.87 32.89 36.27 37.91 38.43 39.05 38.97 39.21 39.86 40.06 40.06 40.28 40.11
36.75 35.23 34.95 34.55 35.69 34.71 32.81 30.83 30.37 30.02 30.39 28.89 29.97 30.48 32.13 34.87 37.01 38.20 37.92 37.82 38.05 38.35 38.65 38.73 39.21 39.40 40.12
34.56 35.26 35.33 34.94 33.47 32.08 30.34 30.06 27.19 28.06 29.47 29.42 28.86 29.34 31.25 33.29 34.61 36.40 36.81 37.54 37.80 38.21 38.07 37.13 37.22 35.74 36.57
33.03 32.85 34.64 35.35 34.31 31.73 31.47 29.21 28.36 27.30 28.97 29.29 27.83 28.63 28.42 30.72 31.95 31.97 33.88 34.59 35.14 34.57 35.53 34.44 35.20 35.69 35.57
29.18 28.26 28.99 30.94 31.01 29.33 30.65 30.93 28.51 28.72 29.78 29.91 28.42 27.69 28.03 28.40 29.25 30.58 31.01 31.58 31.31 31.14 30.63 32.59 33.83 33.62 34.00
27.89 27.25 26.98 27.74 28.77 29.21 29.21 29.47 29.47 30.38 32.21 29.94 28.29 28.44 27.24 26.39 27.01 28.18 29.40 30.07 29.77 30.23 30.49 30.57 29.86 30.52 32.03
26.97 27.41 27.78 28.49 29.39 28.90 29.14 28.83 28.59 29.49 29.20 27.81 28.58 24.12 27.10 27.15 27.03 26.79 28.01 28.36 29.13 29.23 29.21 29.61 30.01 30.40 29.90
27.64 27.98 27.38 27.41 27.53 28.78 27.74 27.61 28.10 27.57 28.89 27.10 26.58 26.18 25.78 26.51 26.82 27.23 27.26 27.66 28.47 28.59 29.22 28.95 29.35 29.73 29.81
27.67 26.58 26.20 26.55 26.48 27.31 27.54 26.98 26.51 26.29 26.08 26.97 26.88 26.67 27.29 25.79 24.78 25.62 25.85 26.03 27.84 27.89 26.77 26.98 28.40 29.69 29.84
28.75 28.20 26.67 26.51 26.43 26.17 26.72 27.07 26.37 25.72 25.89 26.29 26.13 25.34 24.73 26.36 27.41 25.83 25.86 26.03 27.28 27.03 26.55 25.00 26.33 28.89 29.28
28.97 28.10 27.73 26.80 27.47 26.28 26.09 26.12 25.45 25.14 25.36 24.78 23.87 24.08 22.04 20.75 26.63 28.44 25.71 25.86 26.51 26.42 27.10 26.65 25.83 27.32 27.69

GFSFLT2_sfc_wetblb_081.txt.gz
Wetbulb
46.87 46.69 46.90 45.34 43.36 42.89 43.34 43.30 44.26 44.99 45.80 44.57 45.38 45.83 46.01 46.22 47.19 48.13 49.28 50.23 51.46 53.44 54.54 57.15 59.72 59.79 60.10
44.28 42.08 42.65 43.68 41.75 40.67 40.48 40.76 41.24 42.89 43.95 43.36 43.19 44.62 44.57 44.68 45.30 45.87 46.77 47.51 48.45 49.81 51.57 53.06 56.95 59.59 60.67
41.81 41.55 40.61 39.76 38.18 38.69 38.32 36.84 38.04 42.86 42.50 42.27 41.84 42.10 42.76 42.55 41.63 42.08 43.34 45.21 46.28 47.13 48.40 49.93 51.55 54.59 58.30
41.77 40.10 39.77 38.97 38.34 36.39 34.86 36.15 34.68 37.28 37.52 38.14 38.61 39.48 41.18 39.66 39.12 39.33 40.26 41.87 43.93 45.26 46.21 47.00 48.03 49.52 51.76
40.52 39.78 38.38 36.79 35.93 36.41 35.10 34.24 34.66 35.18 34.28 35.14 34.97 34.79 36.99 37.39 37.39 38.35 38.63 39.58 40.91 42.76 43.83 44.61 45.19 46.12 47.24
40.40 39.15 38.72 37.47 35.83 34.49 33.03 31.92 31.51 35.34 34.58 35.03 32.83 32.62 33.19 34.35 37.85 37.87 37.85 38.77 39.35 40.51 41.23 41.93 42.44 42.88 43.41
39.91 39.79 38.13 37.17 35.38 33.40 33.39 34.31 34.87 33.70 33.56 31.70 31.64 30.63 32.28 34.06 37.15 37.98 38.49 39.67 39.91 40.22 40.33 40.89 41.04 41.15 41.43
40.02 39.32 37.97 37.54 36.61 36.08 35.13 34.85 32.86 31.36 31.61 28.90 29.87 29.51 31.11 33.37 37.45 39.04 38.67 38.55 39.03 39.53 40.08 41.02 40.96 41.26 41.58
36.59 39.01 38.81 39.72 38.42 36.25 34.56 33.19 29.75 28.80 29.69 29.15 28.05 28.37 30.30 32.79 35.55 37.97 37.69 38.33 38.87 39.70 39.06 38.71 37.83 37.76 37.92
34.56 35.89 37.15 36.83 39.00 36.30 35.28 31.76 30.57 27.57 29.13 28.32 27.76 28.43 27.51 31.74 32.81 33.39 35.24 38.62 38.49 37.66 37.30 36.75 35.95 33.77 33.02
32.25 32.48 33.45 33.10 31.62 31.49 32.56 32.69 30.02 29.20 30.08 30.64 28.09 27.30 29.54 28.18 30.19 31.07 32.25 32.14 31.85 33.33 34.05 33.44 35.10 33.76 32.31
29.77 28.93 29.63 30.94 29.80 29.97 30.19 30.52 30.32 31.32 30.41 31.30 29.71 28.92 28.45 26.73 26.71 28.47 29.03 30.73 30.92 30.72 31.29 32.92 33.88 33.32 33.40
28.48 28.50 29.57 30.70 29.84 28.61 28.69 29.39 28.97 29.69 30.36 27.68 28.90 26.56 27.13 26.87 25.65 25.44 26.79 29.01 29.85 29.20 29.12 28.49 28.49 29.14 27.37
28.74 29.61 30.03 28.75 28.34 28.85 27.52 27.97 27.24 26.65 29.41 27.32 26.59 26.10 25.66 26.54 26.91 27.53 28.40 27.54 27.59 28.24 28.17 28.07 29.12 28.86 28.32
28.87 28.46 27.74 27.89 27.94 28.38 28.15 27.28 26.24 26.69 25.68 26.66 27.31 27.38 26.65 24.78 24.23 27.02 27.19 26.22 27.45 26.49 25.51 24.33 26.48 28.02 28.77
29.76 28.50 26.99 26.95 26.86 27.46 27.20 26.31 25.26 25.61 25.45 25.95 25.18 23.40 24.08 26.14 29.86 25.15 25.18 24.21 26.82 27.31 25.83 21.12 23.23 27.96 29.58
30.81 29.64 27.95 27.59 27.74 26.41 26.51 25.84 25.27 25.57 25.49 25.96 25.08 22.32 21.19 20.84 25.56 31.35 23.14 24.96 25.42 24.40 25.43 24.98 21.87 25.51 29.26